Location: Bruderhein
(53.8035°N, 112.9265°W)
Time: 01:34:03
(UTC+00:00)

STRAND 1 - Pass Details

Date: 02 April 2023
Orbit: 767 x 779 km, 98.4° (Epoch: 31 May)

Event Time Altitude Azimuth Distance (km) Brightness Sun altitude
Rises 04:32:50 0° 7° (N) 3,256 ? -20.1°
Reaches altitude 10° 04:35:55 10° 348° (NNW) 2,323 ? -20.4°
Maximum altitude 04:39:02 17° 310° (NW) 1,903 ? -20.8°
Drops below altitude 10° 04:42:08 10° 272° (W) 2,313 ? -21.1°
Sets 04:45:13 0° 252° (WSW) 3,236 ? -21.4°
